Home > Weather > Coeur d'Alene > Past weeks

Flag for USA Weather for the Past 2 Weeks in Coeur d'Alene, Idaho, USA

Now
48 °F

Sunny.


Feels Like: 45 °F
Forecast: 45 / 53 °F
Wind: 8 mph from East

Location: Coeur d'Alene Weather Reporting System

Current Time: Apr 29, 2016 at 7:39:57 AM

Latest Report: Apr 29, 2016 at 7:15 AM


Visibility: 10 mi

Pressure: 29.92 "Hg (27.64 "Hg at 655m altitude)

Humidity: 66%

Dew Point: 37 °F

Location of Coeur d'AleneLocation

Historic Weather in Coeur d'Alene — Graph

°F

Coeur d'Alene Temperature Yesterday

Maximum temperature yesterday: 64 °F (at 1:55 PM)
Minimum temperature yesterday: 39 °F (at 5:35 AM)
Average temperature yesterday: 54 °F

High & Low Weather Summary for the Past Weeks

 TemperatureHumidityPressure
High82 °F (Apr 20, 2:55 PM)94% (Apr 23, 2:55 AM)30.38 "Hg (Apr 23, 2:55 AM)
Low34 °F (Apr 16, 3:55 AM)11% (Apr 16, 11:55 AM)29.54 "Hg (Apr 22, 4:15 AM)
Average54 °F62%29.97 "Hg
* Reported Apr 14 6:15 AM — Apr 29 6:35 AM, Coeur d'Alene, Weather by CustomWeather, © 2016

Note: Actual official high and low records may vary slightly from our data, if they occured in-between our weather recording intervals... More about our weather records

Advertising

Coeur d'Alene Weather History for the Previous 24 Hours

Scroll right to see more
 ConditionsComfort  
Time TempWeatherWind HumidityBarometerVisibility
6:35 AM
Fri, Apr 29
48 °FSunny.6 mph66%29.92 "Hg10 mi
6:15 AM50 °FClear.6 mph54%29.92 "Hg10 mi
5:55 AM48 °FPassing clouds.7 mph66%29.92 "Hg10 mi
5:35 AM46 °FPassing clouds.No wind71%29.92 "Hg10 mi
5:15 AM46 °FPassing clouds.No wind66%29.92 "Hg10 mi
4:55 AM46 °FPassing clouds.No wind66%29.92 "Hg10 mi
4:35 AM46 °FClear.No wind66%29.93 "Hg10 mi
4:15 AM46 °FClear.No wind66%29.93 "Hg10 mi
3:55 AM46 °FClear.No wind66%29.93 "Hg10 mi
3:35 AM48 °FClear.No wind62%29.93 "Hg10 mi
3:15 AM46 °FClear.No wind66%29.93 "Hg10 mi
2:55 AM46 °FClear.No wind66%29.93 "Hg10 mi
2:35 AM46 °FClear.5 mph66%29.94 "Hg10 mi
1:55 AM48 °FClear.No wind62%29.94 "Hg10 mi
1:35 AM48 °FClear.No wind62%29.95 "Hg10 mi
1:15 AM48 °FPassing clouds.No wind62%29.95 "Hg10 mi
12:55 AM48 °FPassing clouds.No wind62%29.95 "Hg10 mi
12:35 AM50 °FPassing clouds.No wind58%29.95 "Hg10 mi
12:15 AM50 °FClear.3 mph54%29.96 "Hg10 mi
11:35 PM
Thu, Apr 28
52 °FClear.5 mph47%29.96 "Hg10 mi
11:15 PM52 °FClear.5 mph50%29.96 "Hg10 mi
10:55 PM52 °FClear.7 mph44%29.96 "Hg10 mi
10:35 PM52 °FClear.9 mph41%29.96 "Hg10 mi
9:55 PM52 °FPassing clouds.9 mph16%29.96 "Hg10 mi
9:35 PM54 °FPassing clouds.8 mph51%29.96 "Hg10 mi
9:15 PM54 °FPassing clouds.6 mph51%29.96 "Hg10 mi
8:55 PM54 °FPartly sunny.8 mph41%29.96 "Hg10 mi
8:15 PM55 °FSunny.9 mph44%29.94 "Hg10 mi
7:35 PM57 °FSunny.7 mph41%29.93 "Hg10 mi
7:15 PM57 °FSunny.12 mph41%29.93 "Hg10 mi
6:55 PM57 °FSunny.13 mph41%29.93 "Hg10 mi
6:35 PM59 °FPassing clouds.12 mph39%29.92 "Hg10 mi
6:15 PM61 °FScattered clouds.14 mph36%29.92 "Hg10 mi
5:35 PM61 °FSunny.8 mph36%29.92 "Hg10 mi
4:55 PM63 °FPartly sunny.8 mph37%29.92 "Hg10 mi
4:15 PM63 °FOvercast.8 mph37%29.92 "Hg10 mi
3:35 PM63 °FMostly cloudy.7 mph34%29.92 "Hg10 mi
3:15 PM64 °FPartly sunny.12 mph34%29.93 "Hg10 mi
2:55 PM64 °FOvercast.9 mph34%29.93 "Hg10 mi
2:35 PM64 °FPartly sunny.9 mph34%29.93 "Hg10 mi
2:15 PM63 °FPartly sunny.10 mph37%29.94 "Hg10 mi
1:55 PM64 °FPassing clouds.10 mph34%29.94 "Hg10 mi
1:35 PM63 °FScattered clouds.7 mph37%29.94 "Hg10 mi
1:15 PM63 °FBroken clouds.10 mph37%29.94 "Hg10 mi
12:55 PM61 °FBroken clouds.7 mph39%29.95 "Hg10 mi
12:35 PM61 °FPartly sunny.10 mph39%29.95 "Hg10 mi
12:15 PM61 °FScattered clouds.10 mph39%29.95 "Hg10 mi
11:55 AM59 °FScattered clouds.8 mph42%29.96 "Hg10 mi
11:35 AM61 °FPassing clouds.8 mph42%29.96 "Hg10 mi
11:15 AM59 °FSunny.8 mph42%29.96 "Hg10 mi
10:55 AM57 °FSunny.6 mph48%29.96 "Hg10 mi
10:35 AM57 °FSunny.8 mph48%29.97 "Hg10 mi
10:15 AM57 °FSunny.7 mph48%29.97 "Hg10 mi
9:55 AM55 °FSunny.7 mph51%29.97 "Hg10 mi
9:35 AM55 °FSunny.12 mph55%29.97 "Hg10 mi
9:15 AM54 °FSunny.12 mph58%29.98 "Hg10 mi
8:55 AM52 °FSunny.13 mph62%29.98 "Hg10 mi
8:35 AM52 °FSunny.14 mph62%29.98 "Hg10 mi
8:15 AM50 °FSunny.12 mph58%29.98 "Hg10 mi
7:55 AM48 °FSunny.9 mph71%29.98 "Hg10 mi
7:35 AM46 °FSunny.9 mph76%29.98 "Hg10 mi
Weather by CustomWeather, © 2016

See weather overviewHow to use our weather pages